User: anonymous   Login
Location: Oshawa
(43.9000°N, 78.8670°W)
Time: 23:01:23
(UTC-05:00)
Language:

SPOT 5 - Orbit

View from above orbital plane
View from above orbital plane
View from above satellite
View from above satellite

Ground track
Ground track

The orbit data is extracted from the following two-line orbital elements,

1 27421U 02021A   18021.81630767  .00000006  00000-0  12994-4 0  9996
2 27421  98.3793  90.0176 0135872  19.5451 341.0872 14.51910934817391
Epoch (UTC): 21 January 2018 19:35:28
Eccentricity: 0.0135872
inclination: 98.3793°
perigee height: 623 km
apogee height: 816 km
right ascension of ascending node: 90.0176°
argument of perigee: 19.5451°
revolutions per day: 14.51910934
mean anomaly at epoch: 341.0872°
orbit number at epoch: 81739

The dashed part of the orbit path shows where the satellite is in the earth's shadow,  

DLR